Regional Weather Roundup
Issued by NWS

Home | Current Version | Previous Version | Text Only | Print | Product List | Glossary On
Versions: 1 2 3 4 5 6 7 8 9 10 11 12 13 14 15 16 17 18 19 20 21 22 23 24 25 26 27 28 29 30 31 32 33 34 35 36 37 38 39 40 41 42 43 44 45 46 47 48 49 50
000
ASUS45 KABQ 010901
RWRNM
WEATHER ROUNDUP FOR NEW MEXICO
NATIONAL WEATHER SERVICE ALBUQUERQUE NM
300 AM MDT WED OCT 01 2014

NOTE: "FAIR" MEANS FEW OR NO CLOUDS BELOW 12,000 FEET AGL WITH NO
       SIGNIFICANT WEATHER OR OBSTRUCTIONS TO VISION.

      THIS PRODUCT IS RELEASED AS TWO VERSIONS.  ONE VERSION NEAR
      THE TOP OF THE HOUR CONTAINING PRELIMINARY DATA FROM ALBUQUERQUE
      AND OTHER STATIONS.  A FINAL VERSION WITH ADDITIONAL DATA IS
      ISSUED ABOUT 10 MINUTES AFTER THE HOUR.

NMZ501-503-504-510>518-011000-
NORTHWEST PLATEAU/NORTHCENTRAL MOUNTAINS

CITY           SKY/WX    TMP DP  RH WIND       PRES   REMARKS
FARMINGTON     CLEAR     46  40  79 E8        29.95S
LOS ALAMOS     CLEAR     50  32  49 W3        30.04F
SANTA FE       CLEAR     47  31  53 N10       29.98F
TAOS           CLEAR     34  28  80 N6        30.04F WCI  29
ANGEL FIRE     FAIR      29  26  88 CALM      30.08S

$$
NMZ402-403-502-505>509-011000-
WESTCENTRAL MOUNTAINS/SOUTHWEST MOUNTAINS

CITY           SKY/WX    TMP DP  RH WIND       PRES   REMARKS
GALLUP         CLEAR     42  36  79 CALM      30.02R
GRANTS         CLEAR     36  30  80 NW5       30.04S WCI  32
SILVER CITY    CLEAR     50  36  57 NW9       30.00S

$$
NMZ407-409-411-412-011000-
SOUTHERN DESERTS

CITY           SKY/WX    TMP DP  RH WIND       PRES   REMARKS
LORDSBURG      FAIR      54  37  54 MISG      29.94S
DEMING         CLEAR     53  39  59 W3        29.93F
LAS CRUCES     CLEAR     61  32  33 W10       29.93F
HOLLOMAN AFB   PTCLDY    57  41  55 S7        29.87F
ALAMOGORDO     PTCLDY    57  36  44 SW8       29.89F
T OR C         CLEAR     59  36  42 NW9       29.92S

$$
NMZ519>523-011000-
CENTRAL VALLEYS/CENTRAL HIGHLANDS

CITY           SKY/WX    TMP DP  RH WIND       PRES   REMARKS
ALBUQUERQUE    CLEAR     56  33  42 CALM      29.97R
DOUBLE EAGLE   CLEAR     47  32  56 NW5       29.99S
CLINES CORNERS CLEAR     42  32  67 W10       30.01S
BELEN          NOT AVBL
SOCORRO        FAIR      53  37  55 CALM      29.93S

$$
NMZ524>526-539-540-011000-
SOUTHCENTRAL MOUNTAINS

CITY           SKY/WX    TMP DP  RH WIND       PRES   REMARKS
RUIDOSO        NOT AVBL

$$
NMZ527>531-011000-
NORTHEAST HIGHLANDS/NORTHEAST PLAINS

CITY           SKY/WX    TMP DP  RH WIND       PRES   REMARKS
LAS VEGAS      PTCLDY    44  32  62 NW7       29.99F
RATON          CLEAR     41  36  82 N5        29.95R
CLAYTON        CLEAR     56  36  47 NW8       29.86R

$$
NMZ532>537-011000-
EASTCENTRAL PLAINS

CITY           SKY/WX    TMP DP  RH WIND       PRES   REMARKS
TUCUMCARI      CLEAR     57  42  57 W10       29.83S
CANNON AFB     CLEAR     60  40  47 NW9       29.85F
CLOVIS AIRPORT   N/A     55  41  58 NW7       29.87F

$$
NMZ028-029-538-011000-
SOUTHEAST PLAINS

CITY           SKY/WX    TMP DP  RH WIND       PRES   REMARKS
ROSWELL        CLEAR     56  48  74 CALM      29.84R
CARLSBAD       CLEAR     60  53  77 SW9       29.82S
HOBBS          CLEAR     59  55  88 SW3       29.85F


$$



USA.gov is the U.S. government's official web portal to all federal, state and local government web resources and services.